User: anonymous   Login
Location: El Centro
(32.7920°N, 115.5620°W)
Time: 15:06:16
(UTC-07:00)
Language:

Hamsat - Orbit

View from above orbital plane
View from above orbital plane
View from above satellite
View from above satellite

Ground track
Ground track

The orbit data is extracted from the following two-line orbital elements,

1 28650U 05017B   16273.13685840  .00000744  00000-0  85728-4 0  9997
2 28650  97.6189 250.8984 0022063 275.7406  84.1296 14.88419865617337
Epoch (UTC): 29 September 2016 03:17:04
Eccentricity: 0.0022063
inclination: 97.6189°
perigee height: 587 km
apogee height: 618 km
right ascension of ascending node: 250.8984°
argument of perigee: 275.7406°
revolutions per day: 14.88419865
mean anomaly at epoch: 84.1296°
orbit number at epoch: 61733

The dashed part of the orbit path shows where the satellite is in the earth's shadow,  

DLR